Meteo pe oră la Dziurdziewo

Astăzi, 27 Februarie, Sâmbătă

Timp Temperatura Precipitaţii Vânt Presiune Umiditate
00:00 +1°C° 0 mm 5 m/s 750 mmHg 89%
01:00 0°C° 0 mm 5 m/s 750 mmHg 92%
02:00 0°C° 0 mm 5 m/s 750 mmHg 93%
03:00 0°C° 0 mm 5 m/s 750 mmHg 93%
04:00 -1°C° 0 mm 5 m/s 750 mmHg 93%
05:00 -1°C° 0 mm 5 m/s 751 mmHg 93%
06:00 -1°C° 0 mm 5 m/s 751 mmHg 94%
07:00 -1°C° 0 mm 4 m/s 752 mmHg 94%
08:00 0°C° 0 mm 5 m/s 752 mmHg 89%
09:00 +1°C° 0 mm 5 m/s 753 mmHg 85%
10:00 +2°C° 0 mm 5 m/s 753 mmHg 80%
11:00 +3°C° 0 mm 6 m/s 753 mmHg 76%
12:00 +3°C° 0 mm 6 m/s 754 mmHg 72%
13:00 +4°C° 0 mm 6 m/s 754 mmHg 68%
14:00 +3°C° 0 mm 6 m/s 754 mmHg 69%
15:00 +3°C° 0 mm 6 m/s 754 mmHg 70%
16:00 +2°C° 0 mm 6 m/s 754 mmHg 72%
17:00 +1°C° 0 mm 5 m/s 755 mmHg 77%
18:00 0°C° 0 mm 5 m/s 755 mmHg 82%
19:00 -1°C° 0 mm 4 m/s 755 mmHg 87%
20:00 -1°C° 0 mm 4 m/s 755 mmHg 89%
21:00 -1°C° 0 mm 3 m/s 756 mmHg 91%
22:00 -1°C° 0 mm 3 m/s 756 mmHg 92%
23:00 -1°C° 0 mm 3 m/s 756 mmHg 91%

Mâine, 28 Februarie, Duminică

Timp Temperatura Precipitaţii Vânt Presiune Umiditate
00:00 -1°C° 0 mm 3 m/s 756 mmHg 89%
01:00 -1°C° 0 mm 3 m/s 756 mmHg 88%
02:00 -1°C° 0 mm 3 m/s 756 mmHg 86%
03:00 -1°C° 0 mm 3 m/s 756 mmHg 85%
04:00 0°C° 0 mm 3 m/s 755 mmHg 84%
05:00 -1°C° 0 mm 3 m/s 755 mmHg 85%
06:00 -1°C° 0 mm 3 m/s 755 mmHg 87%
07:00 -1°C° 0 mm 3 m/s 756 mmHg 88%
08:00 0°C° 0 mm 3 m/s 755 mmHg 86%
09:00 0°C° 0 mm 4 m/s 755 mmHg 83%
10:00 +3°C° 0 mm 4 m/s 755 mmHg 81%
11:00 +1°C° 0 mm 4 m/s 755 mmHg 85%
12:00 +1°C° 0 mm 4 m/s 755 mmHg 89%
13:00 +1°C° 0 mm 4 m/s 755 mmHg 92%
14:00 +1°C° 0 mm 4 m/s 755 mmHg 91%
15:00 +1°C° 0 mm 4 m/s 755 mmHg 91%
16:00 +1°C° 0 mm 4 m/s 755 mmHg 90%
17:00 +1°C° 0 mm 4 m/s 755 mmHg 91%
18:00 0°C° 0 mm 4 m/s 755 mmHg 93%
19:00 -1°C° 0 mm 4 m/s 756 mmHg 94%
20:00 -1°C° 0 mm 4 m/s 756 mmHg 94%
21:00 -1°C° 0 mm 4 m/s 756 mmHg 94%
22:00 -1°C° 0 mm 4 m/s 756 mmHg 93%
23:00 0°C° 0 mm 3 m/s 756 mmHg 93%

Poimâine, 1 Martie, Luni

Timp Temperatura Precipitaţii Vânt Presiune Umiditate
00:00 0°C° 0 mm 3 m/s 757 mmHg 92%
01:00 -1°C° 0 mm 3 m/s 757 mmHg 92%
02:00 -1°C° 0 mm 3 m/s 757 mmHg 92%
03:00 -1°C° 0 mm 3 m/s 757 mmHg 92%
04:00 -1°C° 0 mm 2 m/s 757 mmHg 92%
05:00 -1°C° 0 mm 2 m/s 757 mmHg 91%
06:00 -1°C° 0 mm 2 m/s 757 mmHg 91%
07:00 -1°C° 0 mm 2 m/s 757 mmHg 90%
08:00 +2°C° 0 mm 2 m/s 757 mmHg 83%
09:00 +4°C° 0 mm 2 m/s 758 mmHg 75%
10:00 +5°C° 0 mm 2 m/s 758 mmHg 68%
11:00 +5°C° 0 mm 3 m/s 758 mmHg 65%
12:00 +7°C° 0 mm 3 m/s 758 mmHg 63%
13:00 +8°C° 0 mm 3 m/s 758 mmHg 61%
14:00 +8°C° 0 mm 3 m/s 757 mmHg 64%
15:00 +8°C° 0 mm 3 m/s 757 mmHg 66%
16:00 +8°C° 0 mm 3 m/s 757 mmHg 69%
17:00 +7°C° 0 mm 3 m/s 757 mmHg 74%
18:00 +4°C° 0 mm 4 m/s 757 mmHg 79%
19:00 +3°C° 0 mm 4 m/s 757 mmHg 84%
20:00 +3°C° 0 mm 4 m/s 756 mmHg 86%
21:00 +3°C° 0 mm 4 m/s 756 mmHg 87%
22:00 +3°C° 0 mm 4 m/s 756 mmHg 88%
23:00 +1°C° 0 mm 4 m/s 756 mmHg 89%

2 Martie, Marţi

Timp Temperatura Precipitaţii Vânt Presiune Umiditate
00:00 +1°C° 0 mm 4 m/s 756 mmHg 90%
01:00 +1°C° 0 mm 5 m/s 756 mmHg 91%
02:00 +1°C° 0 mm 4 m/s 756 mmHg 91%
03:00 0°C° 0 mm 4 m/s 756 mmHg 92%
04:00 0°C° 0 mm 4 m/s 755 mmHg 93%
05:00 -1°C° 0 mm 4 m/s 755 mmHg 93%
06:00 -1°C° 0 mm 4 m/s 755 mmHg 93%
07:00 -1°C° 0 mm 4 m/s 755 mmHg 93%
08:00 0°C° 0 mm 4 m/s 756 mmHg 87%
09:00 +3°C° 0 mm 4 m/s 756 mmHg 81%
10:00 +4°C° 0 mm 4 m/s 756 mmHg 75%
11:00 +5°C° 0 mm 4 m/s 756 mmHg 71%
12:00 +6°C° 0 mm 4 m/s 756 mmHg 67%
13:00 +7°C° 0 mm 4 m/s 756 mmHg 64%
14:00 +8°C° 0 mm 3 m/s 756 mmHg 66%
15:00 +8°C° 0 mm 3 m/s 756 mmHg 67%
16:00 +8°C° 0 mm 3 m/s 756 mmHg 69%
17:00 +7°C° 0 mm 2 m/s 756 mmHg 76%
18:00 +5°C° 0 mm 2 m/s 756 mmHg 83%
19:00 +4°C° 0 mm 2 m/s 756 mmHg 90%
20:00 +4°C° 0 mm 1 m/s 756 mmHg 91%
21:00 +3°C° 0 mm 1 m/s 756 mmHg 93%
22:00 +3°C° 0 mm 1 m/s 756 mmHg 94%
23:00 +2°C° 0 mm 1 m/s 756 mmHg 94%

3 Martie, Miercuri

Timp Temperatura Precipitaţii Vânt Presiune Umiditate
00:00 +1°C° 0 mm 0 m/s 756 mmHg 93%
01:00 +1°C° 0 mm 0 m/s 756 mmHg 93%
02:00 +1°C° 0 mm 0 m/s 756 mmHg 93%
03:00 +1°C° 0 mm 0 m/s 756 mmHg 92%
04:00 +1°C° 0 mm 0 m/s 755 mmHg 92%
05:00 +1°C° 0 mm 0 m/s 755 mmHg 92%
06:00 +2°C° 0 mm 1 m/s 755 mmHg 92%
07:00 +2°C° 0 mm 1 m/s 755 mmHg 93%
08:00 +3°C° 0 mm 1 m/s 755 mmHg 87%
09:00 +5°C° 0 mm 1 m/s 755 mmHg 81%
10:00 +6°C° 0 mm 2 m/s 755 mmHg 75%
11:00 +7°C° 0 mm 2 m/s 755 mmHg 70%
12:00 +8°C° 0 mm 2 m/s 755 mmHg 65%
13:00 +8°C° 0 mm 2 m/s 755 mmHg 60%
14:00 +8°C° 0 mm 2 m/s 754 mmHg 61%
15:00 +8°C° 0 mm 2 m/s 754 mmHg 63%
16:00 +8°C° 0 mm 2 m/s 753 mmHg 65%
17:00 +8°C° 0 mm 1 m/s 753 mmHg 70%
18:00 +6°C° 0 mm 1 m/s 752 mmHg 75%
19:00 +5°C° 0 mm 1 m/s 752 mmHg 80%
20:00 +5°C° 0 mm 1 m/s 752 mmHg 82%
21:00 +4°C° 0 mm 1 m/s 752 mmHg 83%
22:00 +3°C° 0 mm 2 m/s 751 mmHg 85%
23:00 +3°C° 0 mm 2 m/s 751 mmHg 86%

4 Martie, Joi

Timp Temperatura Precipitaţii Vânt Presiune Umiditate
00:00 +2°C° 0 mm 2 m/s 750 mmHg 88%
01:00 +2°C° 0 mm 2 m/s 750 mmHg 89%
02:00 +2°C° 0 mm 2 m/s 749 mmHg 89%
03:00 +2°C° 0 mm 2 m/s 749 mmHg 90%
04:00 +1°C° 0 mm 2 m/s 748 mmHg 90%
05:00 +1°C° 0 mm 2 m/s 747 mmHg 91%
06:00 +1°C° 0 mm 2 m/s 747 mmHg 92%
07:00 +1°C° 0 mm 2 m/s 746 mmHg 94%
08:00 +1°C° 0 mm 3 m/s 746 mmHg 89%
09:00 +3°C° 0 mm 3 m/s 746 mmHg 84%
10:00 +4°C° 0 mm 3 m/s 745 mmHg 79%
11:00 +5°C° 0 mm 3 m/s 745 mmHg 76%
12:00 +7°C° 0 mm 3 m/s 745 mmHg 72%
13:00 +8°C° 0 mm 3 m/s 744 mmHg 69%
14:00 +7°C° 0.1 mm 3 m/s 744 mmHg 75%
15:00 +5°C° 0.1 mm 3 m/s 743 mmHg 82%
16:00 +5°C° 0.1 mm 3 m/s 743 mmHg 88%
17:00 +4°C° 0.5 mm 3 m/s 743 mmHg 90%
18:00 +3°C° 0.5 mm 4 m/s 743 mmHg 92%
19:00 +3°C° 0.5 mm 4 m/s 742 mmHg 94%
20:00 +1°C° 0.1 mm 5 m/s 743 mmHg 92%
21:00 0°C° 0.1 mm 5 m/s 743 mmHg 90%
22:00 -2°C° 0.1 mm 6 m/s 743 mmHg 88%
23:00 -2°C° 0 mm 6 m/s 744 mmHg 83%
Arată mai mult

Formular de consimțământ

Meteoprog și furnizorii noștri de servicii pot stoca și accesa date personale, precum cookies, identificatori de dispozitiv sau alte tehnologii similare pe dispozitivul dumneavoastră și procesa astfel de date pentru a personaliza conținutul și reclamele, dar și pentru a oferi caracteristici de social media și pentru a analiza traficul.

  • Stocarea și/sau accesarea informațiilor pe dispozitivul dumneavoastră

    Cookies, identificatori de dispozitiv sau alte informații pot fi stocate sau accesate pe dispozitiv în scopurile indicate mai sus.

  • Reclame și conținut personalizat, evaluarea reclamelor și a conținutului, informații despre audiențe și dezvoltarea produselor

    Reclamele și conținutul pot fi personalizate pe baza unui profil. Pot fi adăugate date suplimentare pentru a personaliza mai bine reclamele și conținutul. Performanța reclamelor și conținutului poate fi măsurată. Pot fi obținute informații despre utilizatorii care au văzut reclamele și conținutul. Aceste date pot fi utilizate pentru a dezvolta sau îmbunătăți experiența utilizatorilor, sistemele și software-ul.

Dând clic pe ‘Sunt de acord’, permiteți utilizarea cookie-urilor menționate, a identificatorilor de dispozitiv, balizelor web sau altor tehnologii similare. Setările pot fi modificate din browser-ul dispozitivului dumneavoastră.

În anumite scopuri, interesele legitime pot prima asupra consimțământului. Puteți citi mai multe informații în acest sens în Politica privind Confidențialitatea Datelor și Cookie.